Location: Dackenheim
(49.5215°N, 8.1854°E)
Time: 03:33:42
(UTC+00:00)

JY1SAT - Pass Details

Date: 20 March 2026
Orbit: 466 x 476 km, 97.4° (Epoch: 17 April)

Event Time Altitude Azimuth Distance (km) Brightness Sun altitude
Exits shadow 19:31:30 18° 42° (NE) 1,237 ? -18.4°
Drops below altitude 10° 19:33:13 10° 16° (NNE) 1,667 ? -18.7°
Sets 19:35:38 0° 360° (N) 2,551 ? -19.0°
